Location: Arbon
(43.0005°N, 0.7472°E)
Time: 20:54:19
(UTC+00:00)

Explorer 7 - Pass Details

Date: 01 December 2020
Orbit: 484 x 678 km, 50.3° (Epoch: 25 January)

Event Time Altitude Azimuth Distance (km) Brightness Sun altitude
Rises 08:06:02 0° 288° (WNW) 2,691 9.7 7.7°
Reaches altitude 10° 08:09:01 10° 266° (W) 1,756 9.0 8.2°
Maximum altitude 08:11:23 15° 229° (SW) 1,416 8.9 8.5°
Drops below altitude 10° 08:13:42 10° 192° (SSW) 1,699 9.8 8.8°
Sets 08:16:31 0° 168° (SSE) 2,553 11.2 9.2°
